Time,TemperatureF,DewpointF,PressureIn,WindDirection,WindDirectionDegrees,WindSpeedMPH,WindSpeedGustMPH,Humidity,HourlyPrecipIn,Conditions,Clouds,dailyrainin,SoftwareType,DateUTC
2013-08-18 00:00:00,68.7,49.8,29.72,North,5,0.0,0.0,51,0.00,,,0.00,Wunderground v.1.15,2013-08-18 06:00:00,
2013-08-18 00:09:00,67.9,50.6,29.70,North,360,0.0,0.0,54,0.00,,,0.00,Wunderground v.1.15,2013-08-18 06:09:00,
2013-08-18 00:19:00,66.9,49.7,29.71,North,360,0.0,0.0,54,0.00,,,0.00,Wunderground v.1.15,2013-08-18 06:19:00,
2013-08-18 00:30:00,67.2,50.0,29.71,North,5,0.0,0.0,54,0.00,,,0.00,Wunderground v.1.15,2013-08-18 06:30:00,
2013-08-18 00:40:00,67.0,50.3,29.72,North,5,0.0,0.0,55,0.00,,,0.00,Wunderground v.1.15,2013-08-18 06:40:00,
2013-08-18 00:49:00,66.0,50.3,29.72,North,349,0.0,0.0,57,0.00,,,0.00,Wunderground v.1.15,2013-08-18 06:49:00,
2013-08-18 01:00:00,66.2,51.0,29.72,North,349,0.0,0.0,58,0.00,,,0.00,Wunderground v.1.15,2013-08-18 07:00:00,
2013-08-18 01:10:00,65.9,50.7,29.73,North,349,0.0,0.0,58,0.00,,,0.00,Wunderground v.1.15,2013-08-18 07:10:00,
2013-08-18 01:20:00,66.0,50.8,29.73,North,349,0.0,0.0,58,0.00,,,0.00,Wunderground v.1.15,2013-08-18 07:20:00,
2013-08-18 01:30:00,66.2,51.0,29.73,North,349,0.0,0.0,58,0.00,,,0.00,Wunderground v.1.15,2013-08-18 07:30:00,
2013-08-18 01:40:00,65.7,51.0,29.73,North,349,0.0,0.0,59,0.00,,,0.00,Wunderground v.1.15,2013-08-18 07:40:00,
2013-08-18 01:50:00,64.5,50.7,29.73,North,349,0.0,0.0,61,0.00,,,0.00,Wunderground v.1.15,2013-08-18 07:50:00,
2013-08-18 02:00:00,62.6,50.7,29.74,North,349,0.0,0.0,65,0.00,,,0.00,Wunderground v.1.15,2013-08-18 08:00:00,
2013-08-18 02:10:00,62.8,49.6,29.76,North,349,0.0,0.0,62,0.00,,,0.00,Wunderground v.1.15,2013-08-18 08:10:00,
2013-08-18 02:20:00,62.9,49.2,29.77,North,349,0.0,0.0,61,0.00,,,0.00,Wunderground v.1.15,2013-08-18 08:20:00,
2013-08-18 02:29:00,62.7,49.1,29.77,North,349,0.0,0.0,61,0.00,,,0.00,Wunderground v.1.15,2013-08-18 08:29:00,
2013-08-18 02:40:00,62.2,49.4,29.77,North,349,0.0,0.0,63,0.00,,,0.00,Wunderground v.1.15,2013-08-18 08:40:00,
2013-08-18 02:50:00,60.9,48.6,29.78,North,349,0.0,0.0,64,0.00,,,0.00,Wunderground v.1.15,2013-08-18 08:50:00,
2013-08-18 03:00:00,60.3,48.9,29.79,North,349,0.0,0.0,66,0.00,,,0.00,Wunderground v.1.15,2013-08-18 09:00:00,
2013-08-18 03:09:00,60.5,49.5,29.78,North,349,0.0,0.0,67,0.00,,,0.00,Wunderground v.1.15,2013-08-18 09:09:00,
2013-08-18 03:20:00,60.2,49.2,29.78,North,349,0.0,0.0,67,0.00,,,0.00,Wunderground v.1.15,2013-08-18 09:20:00,
2013-08-18 03:30:00,60.0,49.0,29.78,North,349,0.0,0.0,67,0.00,,,0.00,Wunderground v.1.15,2013-08-18 09:30:00,
2013-08-18 03:40:00,59.7,48.7,29.78,North,349,0.0,0.0,67,0.00,,,0.00,Wunderground v.1.15,2013-08-18 09:40:00,
2013-08-18 03:49:00,59.7,48.7,29.78,North,349,0.0,0.0,67,0.00,,,0.00,Wunderground v.1.15,2013-08-18 09:49:00,
2013-08-18 04:00:00,59.7,48.7,29.79,North,349,0.0,0.0,67,0.00,,,0.00,Wunderground v.1.15,2013-08-18 10:00:00,
2013-08-18 04:10:00,59.0,48.4,29.80,North,349,0.0,0.0,68,0.00,,,0.00,Wunderground v.1.15,2013-08-18 10:10:00,
2013-08-18 04:20:00,58.9,48.7,29.80,North,349,0.0,0.0,69,0.00,,,0.00,Wunderground v.1.15,2013-08-18 10:20:00,
2013-08-18 04:30:00,58.0,49.0,29.80,North,349,0.0,0.0,72,0.00,,,0.00,Wunderground v.1.15,2013-08-18 10:30:00,
2013-08-18 04:40:00,58.0,49.0,29.80,North,349,0.0,0.0,72,0.00,,,0.00,Wunderground v.1.15,2013-08-18 10:40:00,
2013-08-18 04:50:00,58.4,49.4,29.80,North,349,0.0,0.0,72,0.00,,,0.00,Wunderground v.1.15,2013-08-18 10:50:00,
2013-08-18 04:59:00,58.2,49.2,29.80,North,349,0.0,0.0,72,0.00,,,0.00,Wunderground v.1.15,2013-08-18 10:59:00,
2013-08-18 05:09:00,57.9,48.9,29.80,North,349,0.0,2.0,72,0.00,,,0.00,Wunderground v.1.15,2013-08-18 11:09:00,
2013-08-18 05:20:00,57.5,48.5,29.81,NNE,15,1.0,1.0,72,0.00,,,0.00,Wunderground v.1.15,2013-08-18 11:20:00,
2013-08-18 05:30:00,56.7,48.1,29.82,NNE,15,0.0,0.0,73,0.00,,,0.00,Wunderground v.1.15,2013-08-18 11:30:00,
2013-08-18 05:39:00,55.7,47.9,29.83,NNE,15,0.0,0.0,75,0.00,,,0.00,Wunderground v.1.15,2013-08-18 11:39:00,
2013-08-18 05:50:00,55.2,47.8,29.83,NNE,15,0.0,0.0,76,0.00,,,0.00,Wunderground v.1.15,2013-08-18 11:50:00,
2013-08-18 06:00:00,55.3,47.9,29.83,NNE,15,0.0,0.0,76,0.00,,,0.00,Wunderground v.1.15,2013-08-18 12:00:00,
2013-08-18 06:10:00,55.2,47.8,29.85,NNE,15,0.0,0.0,76,0.00,,,0.00,Wunderground v.1.15,2013-08-18 12:10:00,
2013-08-18 06:19:00,55.3,47.9,29.85,NNE,15,0.0,0.0,76,0.00,,,0.00,Wunderground v.1.15,2013-08-18 12:19:00,
2013-08-18 06:30:00,55.3,47.9,29.86,NNE,15,0.0,0.0,76,0.00,,,0.00,Wunderground v.1.15,2013-08-18 12:30:00,
2013-08-18 06:40:00,55.1,47.7,29.86,NNE,15,0.0,0.0,76,0.00,,,0.00,Wunderground v.1.15,2013-08-18 12:40:00,
2013-08-18 06:50:00,54.6,47.2,29.87,NNE,15,0.0,0.0,76,0.00,,,0.00,Wunderground v.1.15,2013-08-18 12:50:00,
2013-08-18 07:00:00,54.4,47.7,29.87,NNE,15,0.0,0.0,78,0.00,,,0.00,Wunderground v.1.15,2013-08-18 13:00:00,
2013-08-18 07:10:00,54.7,47.6,29.89,NNE,15,0.0,0.0,77,0.00,,,0.00,Wunderground v.1.15,2013-08-18 13:10:00,
2013-08-18 07:20:00,55.3,47.9,29.89,NNE,15,0.0,0.0,76,0.00,,,0.00,Wunderground v.1.15,2013-08-18 13:20:00,
2013-08-18 07:29:00,56.7,48.5,29.88,NNE,15,0.0,0.0,74,0.00,,,0.00,Wunderground v.1.15,2013-08-18 13:29:00,
2013-08-18 07:40:00,59.0,49.2,29.87,NNE,15,0.0,0.0,70,0.00,,,0.00,Wunderground v.1.15,2013-08-18 13:40:00,
2013-08-18 07:50:00,61.5,49.2,29.86,NNE,15,0.0,0.0,64,0.00,,,0.00,Wunderground v.1.15,2013-08-18 13:50:00,
2013-08-18 08:00:00,63.6,49.5,29.86,NNE,15,0.0,0.0,60,0.00,,,0.00,Wunderground v.1.15,2013-08-18 14:00:00,
2013-08-18 08:09:00,64.5,47.5,29.89,NNE,15,0.0,0.0,54,0.00,,,0.00,Wunderground v.1.15,2013-08-18 14:09:00,
2013-08-18 08:20:00,65.4,49.8,29.88,NNE,15,0.0,0.0,57,0.00,,,0.00,Wunderground v.1.15,2013-08-18 14:20:00,
2013-08-18 08:30:00,66.5,51.7,29.88,NNE,15,0.0,0.0,59,0.00,,,0.00,Wunderground v.1.15,2013-08-18 14:30:00,
2013-08-18 08:39:00,67.0,50.3,29.88,NNE,15,0.0,0.0,55,0.00,,,0.00,Wunderground v.1.15,2013-08-18 14:39:00,
2013-08-18 08:50:00,68.6,51.8,29.87,NNE,15,0.0,0.0,55,0.00,,,0.00,Wunderground v.1.15,2013-08-18 14:50:00,
2013-08-18 09:00:00,70.0,52.1,29.87,NNW,330,0.0,0.0,53,0.00,,,0.00,Wunderground v.1.15,2013-08-18 15:00:00,
2013-08-18 09:10:00,70.1,51.7,29.89,NW,326,0.0,0.0,52,0.00,,,0.00,Wunderground v.1.15,2013-08-18 15:10:00,
2013-08-18 09:19:00,71.3,51.7,29.89,NW,325,0.0,0.0,50,0.00,,,0.00,Wunderground v.1.15,2013-08-18 15:19:00,
2013-08-18 09:30:00,72.5,51.7,29.87,NNE,33,0.0,0.0,48,0.00,,,0.00,Wunderground v.1.15,2013-08-18 15:30:00,
2013-08-18 09:40:00,73.7,51.6,29.86,NE,34,0.0,0.0,46,0.00,,,0.00,Wunderground v.1.15,2013-08-18 15:40:00,
2013-08-18 09:50:00,75.3,51.9,29.87,NE,34,0.0,0.0,44,0.00,,,0.00,Wunderground v.1.15,2013-08-18 15:50:00,
2013-08-18 09:59:00,77.2,51.7,29.85,NE,34,0.0,0.0,41,0.00,,,0.00,Wunderground v.1.15,2013-08-18 15:59:00,
2013-08-18 10:10:00,79.0,52.6,29.84,NE,34,0.0,0.0,40,0.00,,,0.00,Wunderground v.1.15,2013-08-18 16:10:00,
2013-08-18 10:20:00,80.5,52.6,29.84,NE,35,0.0,0.0,38,0.00,,,0.00,Wunderground v.1.15,2013-08-18 16:20:00,
2013-08-18 10:30:00,81.1,54.5,29.84,NNW,344,0.0,0.0,40,0.00,,,0.00,Wunderground v.1.15,2013-08-18 16:30:00,
2013-08-18 10:40:00,80.1,55.6,29.84,NNW,338,0.0,0.0,43,0.00,,,0.00,Wunderground v.1.15,2013-08-18 16:40:00,
2013-08-18 10:50:00,78.9,55.8,29.84,NNW,338,0.0,0.0,45,0.00,,,0.00,Wunderground v.1.15,2013-08-18 16:50:00,
2013-08-18 11:00:00,79.2,55.4,29.84,NNW,338,0.0,0.0,44,0.00,,,0.00,Wunderground v.1.15,2013-08-18 17:00:00,
2013-08-18 11:09:00,82.0,53.9,29.84,WNW,289,0.0,0.0,38,0.00,,,0.00,Wunderground v.1.15,2013-08-18 17:09:00,
2013-08-18 11:20:00,83.4,51.3,29.83,NW,317,0.0,0.0,33,0.00,,,0.00,Wunderground v.1.15,2013-08-18 17:20:00,
2013-08-18 11:30:00,84.7,53.2,29.82,NNW,337,0.0,0.0,34,0.00,,,0.00,Wunderground v.1.15,2013-08-18 17:30:00,
2013-08-18 11:39:00,84.5,52.2,29.82,WNW,298,1.0,2.0,33,0.00,,,0.00,Wunderground v.1.15,2013-08-18 17:39:00,
2013-08-18 11:50:00,84.8,52.5,29.81,WNW,295,1.0,3.0,33,0.00,,,0.00,Wunderground v.1.15,2013-08-18 17:50:00,
2013-08-18 12:00:00,85.0,52.7,29.81,West,281,2.0,2.0,33,0.00,,,0.00,Wunderground v.1.15,2013-08-18 18:00:00,
2013-08-18 12:10:00,84.6,51.5,29.82,SSW,199,1.0,2.0,32,0.00,,,0.00,Wunderground v.1.15,2013-08-18 18:10:00,
2013-08-18 12:19:00,85.6,52.4,29.81,NE,40,1.0,3.0,32,0.00,,,0.00,Wunderground v.1.15,2013-08-18 18:19:00,
2013-08-18 12:30:00,86.3,53.0,29.80,NNE,28,1.0,1.0,32,0.00,,,0.00,Wunderground v.1.15,2013-08-18 18:30:00,
2013-08-18 12:40:00,87.8,53.4,29.78,NNW,329,1.0,2.0,31,0.00,,,0.00,Wunderground v.1.15,2013-08-18 18:40:00,
2013-08-18 12:50:00,88.4,53.9,29.77,NNE,21,2.0,2.0,31,0.00,,,0.00,Wunderground v.1.15,2013-08-18 18:50:00,
2013-08-18 13:00:00,89.1,54.5,29.77,North,349,1.0,2.0,31,0.00,,,0.00,Wunderground v.1.15,2013-08-18 19:00:00,
2013-08-18 13:10:00,89.6,53.1,29.77,North,360,1.0,3.0,29,0.00,,,0.00,Wunderground v.1.15,2013-08-18 19:10:00,
2013-08-18 13:20:00,90.1,53.6,29.77,North,9,1.0,1.0,29,0.00,,,0.00,Wunderground v.1.15,2013-08-18 19:20:00,
2013-08-18 13:30:00,91.1,53.5,29.76,NW,309,1.0,1.0,28,0.00,,,0.00,Wunderground v.1.15,2013-08-18 19:30:00,
2013-08-18 13:40:00,91.1,54.4,29.75,NW,315,2.0,2.0,29,0.00,,,0.00,Wunderground v.1.15,2013-08-18 19:40:00,
2013-08-18 13:50:00,91.6,54.8,29.75,NNE,17,2.0,5.0,29,0.00,,,0.00,Wunderground v.1.15,2013-08-18 19:50:00,
2013-08-18 14:00:00,91.7,54.0,29.74,NW,304,3.0,3.0,28,0.00,,,0.00,Wunderground v.1.15,2013-08-18 20:00:00,
2013-08-18 14:09:00,92.4,55.5,29.75,NNE,21,2.0,2.0,29,0.00,,,0.00,Wunderground v.1.15,2013-08-18 20:09:00,
2013-08-18 14:20:00,93.3,55.3,29.74,NNW,345,3.0,3.0,28,0.00,,,0.00,Wunderground v.1.15,2013-08-18 20:20:00,
2013-08-18 14:30:00,94.3,56.2,29.73,North,360,3.0,4.0,28,0.00,,,0.00,Wunderground v.1.15,2013-08-18 20:30:00,
2013-08-18 14:40:00,94.2,54.1,29.72,NNE,18,3.0,3.0,26,0.00,,,0.00,Wunderground v.1.15,2013-08-18 20:40:00,
2013-08-18 14:50:00,94.3,55.2,29.72,NNE,31,2.0,2.0,27,0.00,,,0.00,Wunderground v.1.15,2013-08-18 20:50:00,
2013-08-18 15:00:00,94.9,54.7,29.71,NW,325,3.0,4.0,26,0.00,,,0.00,Wunderground v.1.15,2013-08-18 21:00:00,
2013-08-18 15:10:00,95.1,54.8,29.71,NW,321,3.0,4.0,26,0.00,,,0.00,Wunderground v.1.15,2013-08-18 21:10:00,
2013-08-18 15:19:00,95.1,52.6,29.70,NNW,345,2.0,2.0,24,0.00,,,0.00,Wunderground v.1.15,2013-08-18 21:19:00,
2013-08-18 15:30:00,95.5,55.2,29.70,West,272,3.0,5.0,26,0.00,,,0.00,Wunderground v.1.15,2013-08-18 21:30:00,
2013-08-18 15:40:00,93.8,51.5,29.70,WNW,286,6.0,6.0,24,0.00,,,0.00,Wunderground v.1.15,2013-08-18 21:40:00,
2013-08-18 15:50:00,94.2,53.0,29.69,West,276,4.0,7.0,25,0.00,,,0.00,Wunderground v.1.15,2013-08-18 21:50:00,
2013-08-18 15:59:00,93.7,52.6,29.69,West,280,5.0,5.0,25,0.00,,,0.00,Wunderground v.1.15,2013-08-18 21:59:00,
2013-08-18 16:10:00,94.2,55.1,29.69,West,272,3.0,7.0,27,0.00,,,0.00,Wunderground v.1.15,2013-08-18 22:10:00,
2013-08-18 16:20:00,94.4,53.2,29.69,NW,315,4.0,4.0,25,0.00,,,0.00,Wunderground v.1.15,2013-08-18 22:20:00,
2013-08-18 16:30:00,94.6,52.2,29.68,NW,314,3.0,3.0,24,0.00,,,0.00,Wunderground v.1.15,2013-08-18 22:30:00,
2013-08-18 16:40:00,93.9,52.7,29.68,WNW,303,5.0,5.0,25,0.00,,,0.00,Wunderground v.1.15,2013-08-18 22:40:00,
2013-08-18 16:50:00,93.8,54.8,29.68,West,260,4.0,4.0,27,0.00,,,0.00,Wunderground v.1.15,2013-08-18 22:50:00,
2013-08-18 17:00:00,94.2,53.0,29.67,NW,319,3.0,5.0,25,0.00,,,0.00,Wunderground v.1.15,2013-08-18 23:00:00,
2013-08-18 17:09:00,94.8,51.2,29.68,West,271,3.0,4.0,23,0.00,,,0.00,Wunderground v.1.15,2013-08-18 23:09:00,
2013-08-18 17:20:00,95.5,54.1,29.68,NW,317,1.0,2.0,25,0.00,,,0.00,Wunderground v.1.15,2013-08-18 23:20:00,
2013-08-18 17:30:00,96.5,51.4,29.67,NNW,331,2.0,2.0,22,0.00,,,0.00,Wunderground v.1.15,2013-08-18 23:30:00,
2013-08-18 17:40:00,97.1,55.4,29.66,North,5,1.0,3.0,25,0.00,,,0.00,Wunderground v.1.15,2013-08-18 23:40:00,
2013-08-18 17:50:00,97.5,53.5,29.66,North,5,2.0,4.0,23,0.00,,,0.00,Wunderground v.1.15,2013-08-18 23:50:00,
2013-08-18 18:00:00,97.4,54.6,29.66,North,9,2.0,3.0,24,0.00,,,0.00,Wunderground v.1.15,2013-08-19 00:00:00,
2013-08-18 18:10:00,97.1,55.4,29.66,NW,323,2.0,2.0,25,0.00,,,0.00,Wunderground v.1.15,2013-08-19 00:10:00,
2013-08-18 18:20:00,96.7,54.0,29.66,North,5,2.0,2.0,24,0.00,,,0.00,Wunderground v.1.15,2013-08-19 00:20:00,
2013-08-18 18:30:00,97.1,55.4,29.65,NNE,16,1.0,2.0,25,0.00,,,0.00,Wunderground v.1.15,2013-08-19 00:30:00,
2013-08-18 18:40:00,97.2,55.5,29.65,NNE,27,1.0,1.0,25,0.00,,,0.00,Wunderground v.1.15,2013-08-19 00:40:00,
2013-08-18 18:50:00,96.4,52.6,29.66,NNE,27,1.0,1.0,23,0.00,,,0.00,Wunderground v.1.15,2013-08-19 00:50:00,
2013-08-18 18:59:00,96.8,52.9,29.66,NNE,27,0.0,0.0,23,0.00,,,0.00,Wunderground v.1.15,2013-08-19 00:59:00,
2013-08-18 19:10:00,96.0,53.4,29.62,NNE,32,0.0,0.0,24,0.00,,,0.00,Wunderground v.1.15,2013-08-19 01:10:00,
2013-08-18 19:20:00,94.6,53.3,29.63,ESE,119,2.0,2.0,25,0.00,,,0.00,Wunderground v.1.15,2013-08-19 01:20:00,
2013-08-18 19:30:00,92.6,52.7,29.64,ESE,121,3.0,3.0,26,0.00,,,0.00,Wunderground v.1.15,2013-08-19 01:30:00,
2013-08-18 19:40:00,91.1,52.5,29.65,ESE,119,2.0,2.0,27,0.00,,,0.00,Wunderground v.1.15,2013-08-19 01:40:00,
2013-08-18 19:50:00,89.9,53.4,29.65,ESE,117,1.0,2.0,29,0.00,,,0.00,Wunderground v.1.15,2013-08-19 01:50:00,
2013-08-18 20:00:00,88.4,53.0,29.66,ESE,119,1.0,3.0,30,0.00,,,0.00,Wunderground v.1.15,2013-08-19 02:00:00,
2013-08-18 20:10:00,87.1,52.8,29.65,East,99,2.0,2.0,31,0.00,,,0.00,Wunderground v.1.15,2013-08-19 02:10:00,
2013-08-18 20:20:00,85.9,51.8,29.65,ESE,109,1.0,1.0,31,0.00,,,0.00,Wunderground v.1.15,2013-08-19 02:20:00,
2013-08-18 20:30:00,84.9,52.6,29.67,ESE,109,0.0,0.0,33,0.00,,,0.00,Wunderground v.1.15,2013-08-19 02:30:00,
2013-08-18 20:40:00,83.9,52.5,29.67,ESE,108,0.0,1.0,34,0.00,,,0.00,Wunderground v.1.15,2013-08-19 02:40:00,
2013-08-18 20:49:00,83.2,51.9,29.68,ESE,103,0.0,0.0,34,0.00,,,0.00,Wunderground v.1.15,2013-08-19 02:49:00,
2013-08-18 21:00:00,82.7,51.5,29.69,East,96,1.0,2.0,34,0.00,,,0.00,Wunderground v.1.15,2013-08-19 03:00:00,
2013-08-18 21:10:00,82.6,50.6,29.66,ESE,103,2.0,2.0,33,0.00,,,0.00,Wunderground v.1.15,2013-08-19 03:10:00,
2013-08-18 21:20:00,82.0,50.9,29.66,East,98,1.0,1.0,34,0.00,,,0.00,Wunderground v.1.15,2013-08-19 03:20:00,
2013-08-18 21:30:00,81.5,50.4,29.67,East,92,1.0,3.0,34,0.00,,,0.00,Wunderground v.1.15,2013-08-19 03:30:00,
2013-08-18 21:40:00,81.0,50.8,29.68,East,99,2.0,2.0,35,0.00,,,0.00,Wunderground v.1.15,2013-08-19 03:40:00,
2013-08-18 21:50:00,80.7,50.5,29.68,East,79,3.0,4.0,35,0.00,,,0.00,Wunderground v.1.15,2013-08-19 03:50:00,
2013-08-18 21:59:00,80.5,50.3,29.68,East,86,3.0,3.0,35,0.00,,,0.00,Wunderground v.1.15,2013-08-19 03:59:00,
2013-08-18 22:10:00,80.6,50.4,29.68,ESE,104,2.0,4.0,35,0.00,,,0.00,Wunderground v.1.15,2013-08-19 04:10:00,
2013-08-18 22:20:00,80.9,49.9,29.68,East,80,3.0,5.0,34,0.00,,,0.00,Wunderground v.1.15,2013-08-19 04:20:00,
2013-08-18 22:30:00,80.8,49.8,29.68,ENE,61,4.0,7.0,34,0.00,,,0.00,Wunderground v.1.15,2013-08-19 04:30:00,
2013-08-18 22:40:00,80.6,49.6,29.69,East,84,4.0,4.0,34,0.00,,,0.00,Wunderground v.1.15,2013-08-19 04:40:00,
2013-08-18 22:50:00,80.2,50.1,29.69,ENE,78,3.0,3.0,35,0.00,,,0.00,Wunderground v.1.15,2013-08-19 04:50:00,
2013-08-18 23:00:00,79.8,49.7,29.69,ENE,77,2.0,2.0,35,0.00,,,0.00,Wunderground v.1.15,2013-08-19 05:00:00,
2013-08-18 23:10:00,80.1,50.0,29.68,ENE,61,4.0,5.0,35,0.00,,,0.00,Wunderground v.1.15,2013-08-19 05:10:00,
2013-08-18 23:20:00,79.4,50.1,29.68,East,82,3.0,4.0,36,0.00,,,0.00,Wunderground v.1.15,2013-08-19 05:20:00,
2013-08-18 23:30:00,78.4,50.0,29.69,ENE,78,2.0,2.0,37,0.00,,,0.00,Wunderground v.1.15,2013-08-19 05:30:00,
2013-08-18 23:40:00,77.7,49.3,29.70,East,83,2.0,2.0,37,0.00,,,0.00,Wunderground v.1.15,2013-08-19 05:40:00,
2013-08-18 23:49:00,76.8,49.3,29.70,ESE,111,1.0,1.0,38,0.00,,,0.00,Wunderground v.1.15,2013-08-19 05:49:00,